Location: Sternwarte auf dem Internationalen Platz Vogelsang IP
(50.5721°N, 6.4398°E)
Time: 11:26:12
(UTC+01:00)

ACS3 Solar Sail - Pass Details

Date: 16 November 2025
Orbit: 888 x 1003 km, 97.3° (Epoch: 07 December)

Event Time Altitude Azimuth Distance (km) Brightness Sun altitude
Rises 05:15:57 0° 6° (N) 3,553 4.8 -24.3°
Reaches altitude 10° 05:18:35 10° 357° (N) 2,622 4.0 -23.9°
Enters shadow 05:21:36 25° 332° (NNW) 1,775 2.9 -23.4°
